User: anonymous   Login
Location: Black Swamp Observatory
(41.3920°N, 84.1250°W)
Time: 12:25:26
(UTC-05:00)
Language:

ISS - Orbit

View from above orbital plane
View from above orbital plane
View from above satellite
View from above satellite

Ground track
Ground track

The orbit data is extracted from the following two-line orbital elements,

1 25544U 98067A   22019.50246851  .00006022  00000-0  11517-3 0  9993
2 25544  51.6452 352.8974 0006693  39.0087  62.6607 15.49549850322121
Epoch (UTC): 19 January 2022 12:03:33
Eccentricity: 0.0006693
inclination: 51.6452°
perigee height: 413 km
apogee height: 422 km
right ascension of ascending node: 352.8974°
argument of perigee: 39.0087°
revolutions per day: 15.49549850
mean anomaly at epoch: 62.6607°
orbit number at epoch: 32212

The dashed part of the orbit path shows where the satellite is in the earth's shadow,  

DLR